Location: Campavaglio
(41.1333°N, 9.2333°E)
Time: 21:51:36
(UTC+00:00)

CZ-4C R/B - Pass Details

Date: 07 June 2020
Orbit: 463 x 637 km, 98.0° (Epoch: 11 July)

Event Time Altitude Azimuth Distance (km) Brightness Sun altitude
Exits shadow 00:37:53 37° 116° (ESE) 985 4.5 -23.7°
Maximum altitude 00:39:05 47° 72° (ENE) 841 4.4 -23.6°
Drops below altitude 10° 00:43:21 10° 359° (N) 2,034 7.1 -23.4°
Sets 00:45:37 0° 354° (N) 2,946 8.1 -23.2°
